User: anonymous   Login
Location: Theydon Bois
(51.6750°N, 0.1050°E)
Time: 13:22:54
(UTC+00:00)
Language:

FengYun 1-2 T - Orbit

View from above orbital plane
View from above orbital plane
View from above satellite
View from above satellite

Ground track
Ground track

The orbit data is extracted from the following two-line orbital elements,

1 20855U 90081T   17347.95094375 +.00000096 +00000-0 +80794-4 0  9999
2 20855 098.7865 015.8438 0023070 275.6656 145.2301 14.08644338401803
Epoch (UTC): 13 December 2017 22:49:21
Eccentricity: 0.0023070
inclination: 98.7865°
perigee height: 847 km
apogee height: 881 km
right ascension of ascending node: 15.8438°
argument of perigee: 275.6656°
revolutions per day: 14.08644338
mean anomaly at epoch: 145.2301°
orbit number at epoch: 40180

The dashed part of the orbit path shows where the satellite is in the earth's shadow,  

DLR